| time (UTC) | temp F | wind direction | speed MPH | gust MPH | rain 1hr in | rain 24hr in | rain mn in | humidity % | barometer mb |
| 20260508192008 | 51 | 51 | 7.0 | 14.0 | 0.01 | 0.05 | 0.05 | 83 | 1011.5 |
| 20260508191522 | 51 | 41 | 7.0 | 13.0 | 0.01 | 0.05 | 0.05 | 85 | 1011.6 |
| 20260508191003 | 51 | 43 | 6.0 | 13.0 | 0.02 | 0.05 | 0.05 | 86 | 1011.5 |
| 20260508190503 | 51 | 21 | 6.0 | 13.0 | 0.02 | 0.05 | 0.05 | 86 | 1011.7 |
| 20260508190028 | 51 | 51 | 4.0 | 12.0 | 0.02 | 0.05 | 0.05 | 87 | 1011.7 |
| 20260508185502 | 51 | 82 | 7.0 | 17.0 | 0.02 | 0.05 | 0.05 | 87 | 1012.0 |
| 20260508185004 | 51 | 28 | 9.0 | 17.0 | 0.02 | 0.05 | 0.05 | 86 | 1011.9 |
| 20260508184505 | 51 | 38 | 6.0 | 11.0 | 0.03 | 0.05 | 0.05 | 86 | 1011.8 |
| 20260508184004 | 51 | 53 | 4.0 | 10.0 | 0.02 | 0.04 | 0.04 | 86 | 1011.9 |
| 20260508183507 | 51 | 9 | 5.0 | 10.0 | 0.02 | 0.04 | 0.04 | 86 | 1012.0 |
| 20260508183007 | 51 | 55 | 6.0 | 10.0 | 0.02 | 0.04 | 0.04 | 86 | 1012.2 |
| 20260508182504 | 51 | 43 | 5.0 | 12.0 | 0.02 | 0.04 | 0.04 | 84 | 1012.3 |
| 20260508182011 | 52 | 105 | 7.0 | 13.0 | 0.02 | 0.04 | 0.04 | 84 | 1012.4 |
| 20260508181507 | 52 | 113 | 7.0 | 13.0 | 0.02 | 0.04 | 0.04 | 83 | 1012.6 |
| 20260508181002 | 52 | 47 | 6.0 | 11.0 | 0.01 | 0.03 | 0.03 | 82 | 1012.7 |
| 20260508180508 | 52 | 92 | 5.0 | 14.0 | 0.01 | 0.03 | 0.03 | 81 | 1012.7 |
| 20260508180005 | 53 | 100 | 7.0 | 16.0 | 0.01 | 0.03 | 0.03 | 79 | 1012.7 |
| 20260508175503 | 53 | 108 | 6.0 | 17.0 | 0.01 | 0.03 | 0.03 | 78 | 1012.7 |
| 20260508175007 | 54 | 78 | 8.0 | 17.0 | 0.01 | 0.03 | 0.03 | 77 | 1012.8 |
| 20260508174521 | 54 | 110 | 8.0 | 14.0 | 0.00 | 0.02 | 0.02 | 77 | 1012.8 |
| 20260508174004 | 55 | 49 | 5.0 | 10.0 | 0.00 | 0.02 | 0.02 | 76 | 1012.8 |
| 20260508173509 | 55 | 96 | 4.0 | 14.0 | 0.00 | 0.02 | 0.02 | 77 | 1012.8 |
| 20260508173004 | 54 | 51 | 5.0 | 16.0 | 0.00 | 0.02 | 0.02 | 74 | 1012.7 |
| 20260508172505 | 55 | 102 | 7.0 | 18.0 | 0.00 | 0.02 | 0.02 | 73 | 1012.7 |
| 20260508172004 | 55 | 111 | 9.0 | 18.0 | 0.00 | 0.02 | 0.02 | 71 | 1012.7 |
| 20260508171509 | 55 | 134 | 7.0 | 15.0 | 0.00 | 0.02 | 0.02 | 72 | 1012.7 |
| 20260508171004 | 55 | 95 | 6.0 | 15.0 | 0.00 | 0.02 | 0.02 | 72 | 1012.7 |
| 20260508170504 | 55 | 55 | 6.0 | 12.0 | 0.00 | 0.02 | 0.02 | 73 | 1012.7 |
| 20260508170012 | 56 | 72 | 6.0 | 14.0 | 0.00 | 0.02 | 0.02 | 74 | 1012.6 |
| 20260508165505 | 56 | 130 | 7.0 | 16.0 | 0.00 | 0.02 | 0.02 | 71 | 1012.6 |
| 20260508165004 | 56 | 78 | 5.0 | 16.0 | 0.00 | 0.02 | 0.02 | 70 | 1012.7 |
| 20260508164509 | 57 | 44 | 10.0 | 16.0 | 0.00 | 0.02 | 0.02 | 66 | 1012.7 |
| 20260508164004 | 57 | 120 | 7.0 | 17.0 | 0.00 | 0.02 | 0.02 | 65 | 1012.6 |
| 20260508163508 | 58 | 107 | 10.0 | 17.0 | 0.00 | 0.02 | 0.02 | 65 | 1012.7 |
| 20260508163024 | 58 | 98 | 6.0 | 16.0 | 0.00 | 0.02 | 0.02 | 66 | 1012.6 |
| 20260508162504 | 58 | 73 | 7.0 | 17.0 | 0.00 | 0.02 | 0.02 | 66 | 1012.6 |
| 20260508162006 | 58 | 76 | 7.0 | 17.0 | 0.00 | 0.02 | 0.02 | 67 | 1012.6 |
| 20260508161521 | 59 | 96 | 9.0 | 17.0 | 0.00 | 0.02 | 0.02 | 66 | 1012.8 |
| 20260508161004 | 58 | 127 | 6.0 | 14.0 | 0.00 | 0.02 | 0.02 | 71 | 1012.8 |
| 20260508160504 | 57 | 115 | 8.0 | 14.0 | 0.00 | 0.02 | 0.02 | 68 | 1012.9 |
| 20260508160010 | 57 | 36 | 3.0 | 14.0 | 0.00 | 0.02 | 0.02 | 71 | 1013.0 |
| 20260508155505 | 57 | 107 | 7.0 | 16.0 | 0.00 | 0.02 | 0.02 | 70 | 1013.1 |
| 20260508155004 | 57 | 57 | 8.0 | 16.0 | 0.00 | 0.02 | 0.02 | 70 | 1012.9 |
| 20260508154515 | 57 | 62 | 7.0 | 15.0 | 0.00 | 0.02 | 0.02 | 69 | 1012.9 |
| 20260508154005 | 57 | 98 | 10.0 | 15.0 | 0.00 | 0.02 | 0.02 | 68 | 1012.9 |
| 20260508153510 | 57 | 88 | 6.0 | 18.0 | 0.00 | 0.02 | 0.02 | 67 | 1012.9 |
| 20260508153014 | 57 | 104 | 9.0 | 18.0 | 0.00 | 0.02 | 0.02 | 67 | 1012.8 |
| 20260508152510 | 58 | 57 | 8.0 | 16.0 | 0.00 | 0.02 | 0.02 | 68 | 1012.8 |
| 20260508152010 | 57 | 118 | 5.0 | 17.0 | 0.00 | 0.02 | 0.02 | 71 | 1012.7 |
| 20260508151511 | 56 | 89 | 6.0 | 19.0 | 0.00 | 0.02 | 0.02 | 70 | 1012.7 |
| 20260508151006 | 56 | 98 | 5.0 | 19.0 | 0.00 | 0.02 | 0.02 | 68 | 1012.7 |
| 20260508150509 | 56 | 110 | 11.0 | 19.0 | 0.00 | 0.02 | 0.02 | 67 | 1012.7 |
| 20260508150033 | 56 | 120 | 4.0 | 20.0 | 0.00 | 0.02 | 0.02 | 68 | 1012.8 |
| 20260508145506 | 56 | 85 | 9.0 | 20.0 | 0.00 | 0.02 | 0.02 | 67 | 1012.8 |
| 20260508145004 | 57 | 108 | 9.0 | 17.0 | 0.00 | 0.02 | 0.02 | 66 | 1012.7 |
| 20260508144510 | 56 | 111 | 7.0 | 16.0 | 0.00 | 0.02 | 0.02 | 67 | 1012.7 |
| 20260508144006 | 56 | 106 | 7.0 | 14.0 | 0.00 | 0.02 | 0.02 | 68 | 1012.8 |
| 20260508143509 | 56 | 117 | 7.0 | 14.0 | 0.00 | 0.02 | 0.02 | 65 | 1012.8 |
| 20260508143015 | 57 | 136 | 8.0 | 14.0 | 0.00 | 0.02 | 0.02 | 66 | 1012.7 |
| 20260508142506 | 57 | 115 | 5.0 | 13.0 | 0.00 | 0.02 | 0.02 | 71 | 1012.7 |
| 20260508142003 | 56 | 110 | 6.0 | 18.0 | 0.00 | 0.02 | 0.02 | 68 | 1012.8 |
| 20260508141522 | 56 | 112 | 12.0 | 18.0 | 0.00 | 0.02 | 0.02 | 67 | 1012.8 |
| 20260508141007 | 55 | 76 | 6.0 | 20.0 | 0.00 | 0.02 | 0.02 | 69 | 1012.8 |
| 20260508140511 | 55 | 113 | 7.0 | 20.0 | 0.00 | 0.02 | 0.02 | 69 | 1012.8 |
| 20260508140014 | 55 | 87 | 3.0 | 15.0 | 0.00 | 0.02 | 0.02 | 73 | 1012.8 |
| 20260508135510 | 55 | 96 | 8.0 | 16.0 | 0.00 | 0.02 | 0.02 | 69 | 1012.9 |
| 20260508135011 | 54 | 55 | 7.0 | 16.0 | 0.00 | 0.02 | 0.02 | 71 | 1012.9 |
| 20260508134537 | 54 | 100 | 7.0 | 13.0 | 0.00 | 0.02 | 0.02 | 72 | 1012.9 |
| 20260508134008 | 53 | 134 | 5.0 | 15.0 | 0.00 | 0.02 | 0.02 | 71 | 1013.0 |
| 20260508133513 | 53 | 126 | 6.0 | 19.0 | 0.00 | 0.02 | 0.02 | 70 | 1013.1 |
| 20260508133015 | 53 | 109 | 11.0 | 19.0 | 0.00 | 0.02 | 0.02 | 69 | 1013.1 |
| 20260508132506 | 52 | 65 | 5.0 | 15.0 | 0.00 | 0.02 | 0.02 | 71 | 1013.2 |
| 20260508132007 | 53 | 148 | 7.0 | 15.0 | 0.00 | 0.02 | 0.02 | 69 | 1013.1 |
| 20260508131517 | 53 | 88 | 8.0 | 14.0 | 0.00 | 0.02 | 0.02 | 70 | 1013.1 |
| 20260508131007 | 53 | 126 | 6.0 | 14.0 | 0.00 | 0.02 | 0.02 | 70 | 1013.2 |
| 20260508130508 | 53 | 76 | 6.0 | 11.0 | 0.00 | 0.02 | 0.02 | 71 | 1013.2 |
| 20260508130006 | 52 | 140 | 3.0 | 11.0 | 0.00 | 0.02 | 0.02 | 72 | 1013.2 |
| 20260508125503 | 51 | 119 | 4.0 | 17.0 | 0.00 | 0.02 | 0.02 | 72 | 1013.2 |
| 20260508125003 | 51 | 59 | 9.0 | 17.0 | 0.00 | 0.02 | 0.02 | 73 | 1013.1 |
| 20260508124504 | 50 | 61 | 7.0 | 13.0 | 0.00 | 0.02 | 0.02 | 73 | 1013.1 |
| 20260508124003 | 50 | 79 | 7.0 | 12.0 | 0.00 | 0.02 | 0.02 | 75 | 1013.0 |
| 20260508123503 | 49 | 61 | 7.0 | 14.0 | 0.00 | 0.02 | 0.02 | 75 | 1013.0 |
| 20260508123016 | 49 | 55 | 7.0 | 14.0 | 0.00 | 0.02 | 0.02 | 76 | 1012.9 |
| 20260508122503 | 48 | 25 | 6.0 | 14.0 | 0.00 | 0.02 | 0.02 | 79 | 1012.8 |
| 20260508122002 | 48 | 32 | 4.0 | 9.0 | 0.00 | 0.02 | 0.02 | 82 | 1013.0 |
| 20260508121513 | 47 | 53 | 4.0 | 9.0 | 0.00 | 0.02 | 0.02 | 82 | 1013.0 |
| 20260508121007 | 47 | 75 | 5.0 | 9.0 | 0.00 | 0.02 | 0.02 | 83 | 1013.0 |
| 20260508120504 | 46 | 73 | 4.0 | 7.0 | 0.00 | 0.02 | 0.02 | 84 | 1012.9 |
| 20260508120005 | 46 | 36 | 2.0 | 7.0 | 0.00 | 0.02 | 0.02 | 85 | 1012.9 |
| 20260508115503 | 46 | 27 | 4.0 | 9.0 | 0.00 | 0.02 | 0.02 | 85 | 1012.9 |
| 20260508115002 | 45 | 45 | 3.0 | 9.0 | 0.00 | 0.02 | 0.02 | 86 | 1012.9 |
| 20260508114506 | 45 | 60 | 3.0 | 7.0 | 0.01 | 0.02 | 0.02 | 87 | 1012.9 |
| 20260508114004 | 45 | 66 | 3.0 | 8.0 | 0.01 | 0.02 | 0.02 | 87 | 1012.9 |
| 20260508113503 | 45 | 78 | 4.0 | 8.0 | 0.01 | 0.02 | 0.02 | 87 | 1012.9 |
| 20260508113003 | 44 | 47 | 3.0 | 6.0 | 0.01 | 0.02 | 0.02 | 87 | 1012.7 |
| 20260508112502 | 44 | 51 | 2.0 | 5.0 | 0.01 | 0.02 | 0.02 | 87 | 1012.7 |
| 20260508112006 | 44 | 74 | 2.0 | 7.0 | 0.01 | 0.02 | 0.02 | 87 | 1012.8 |
| 20260508111513 | 44 | 100 | 3.0 | 7.0 | 0.01 | 0.02 | 0.02 | 86 | 1012.9 |
| 20260508111005 | 44 | 68 | 3.0 | 7.0 | 0.01 | 0.02 | 0.02 | 86 | 1012.9 |
| 20260508110505 | 45 | 68 | 2.0 | 7.0 | 0.01 | 0.02 | 0.02 | 85 | 1012.9 |
| 20260508110017 | 45 | 87 | 3.0 | 7.0 | 0.01 | 0.02 | 0.02 | 85 | 1012.9 |
| 20260508105502 | 45 | 91 | 2.0 | 17.0 | 0.01 | 0.02 | 0.02 | 85 | 1012.9 |
| 20260508105006 | 45 | 107 | 2.0 | 16.0 | 0.01 | 0.02 | 0.02 | 84 | 1013.0 |
| 20260508104520 | 45 | 121 | 6.0 | 15.0 | 0.00 | 0.01 | 0.01 | 83 | 1013.1 |
| 20260508104002 | 45 | 86 | 3.0 | 4.0 | 0.00 | 0.01 | 0.01 | 82 | 1012.9 |
| 20260508103502 | 45 | 84 | 0.0 | 3.0 | 0.00 | 0.01 | 0.01 | 81 | 1012.7 |
| 20260508103007 | 45 | 84 | 0.0 | 4.0 | 0.00 | 0.01 | 0.01 | 81 | 1012.6 |
| 20260508102504 | 45 | 70 | 2.0 | 4.0 | 0.00 | 0.01 | 0.01 | 80 | 1012.4 |
| 20260508102003 | 45 | 49 | 2.0 | 7.0 | 0.00 | 0.01 | 0.01 | 80 | 1012.3 |
| 20260508101509 | 45 | 48 | 3.0 | 7.0 | 0.00 | 0.01 | 0.01 | 80 | 1012.3 |
| 20260508101006 | 45 | 82 | 2.0 | 5.0 | 0.00 | 0.01 | 0.01 | 79 | 1012.2 |
| 20260508100506 | 46 | 44 | 2.0 | 7.0 | 0.00 | 0.01 | 0.01 | 79 | 1012.3 |
| 20260508100006 | 46 | 56 | 3.0 | 7.0 | 0.00 | 0.01 | 0.01 | 79 | 1012.3 |
| 20260508095505 | 46 | 90 | 2.0 | 7.0 | 0.00 | 0.01 | 0.01 | 78 | 1012.3 |
| 20260508095007 | 46 | 64 | 2.0 | 11.0 | 0.00 | 0.01 | 0.01 | 78 | 1012.3 |
| 20260508094521 | 46 | 58 | 3.0 | 12.0 | 0.00 | 0.01 | 0.01 | 78 | 1012.3 |
| 20260508094002 | 46 | 98 | 6.0 | 12.0 | 0.00 | 0.01 | 0.01 | 78 | 1012.3 |
| 20260508093506 | 46 | 140 | 5.0 | 17.0 | 0.00 | 0.01 | 0.01 | 78 | 1012.3 |
| 20260508093019 | 46 | 150 | 4.0 | 18.0 | 0.00 | 0.01 | 0.01 | 79 | 1012.4 |
| 20260508092509 | 45 | 135 | 7.0 | 18.0 | 0.00 | 0.01 | 0.01 | 79 | 1012.8 |
| 20260508092002 | 45 | 67 | 8.0 | 18.0 | 0.00 | 0.01 | 0.01 | 79 | 1012.6 |
| 20260508091507 | 44 | 84 | 5.0 | 9.0 | 0.00 | 0.01 | 0.01 | 80 | 1012.6 |
| 20260508091003 | 44 | 86 | 4.0 | 8.0 | 0.00 | 0.01 | 0.01 | 80 | 1012.7 |
| 20260508090502 | 44 | 112 | 3.0 | 8.0 | 0.00 | 0.01 | 0.01 | 80 | 1012.6 |
| 20260508090021 | 44 | 75 | 2.0 | 6.0 | 0.00 | 0.01 | 0.01 | 81 | 1012.7 |
| 20260508085507 | 44 | 56 | 3.0 | 6.0 | 0.00 | 0.01 | 0.01 | 81 | 1012.6 |
| 20260508085007 | 44 | 65 | 2.0 | 5.0 | 0.00 | 0.01 | 0.01 | 81 | 1012.5 |
| 20260508084512 | 44 | 47 | 2.0 | 8.0 | 0.00 | 0.01 | 0.01 | 81 | 1012.5 |
| 20260508084010 | 44 | 62 | 3.0 | 9.0 | 0.00 | 0.01 | 0.01 | 81 | 1012.4 |
| 20260508083507 | 44 | 69 | 4.0 | 9.0 | 0.00 | 0.01 | 0.01 | 80 | 1012.5 |
| 20260508083024 | 44 | 84 | 1.0 | 6.0 | 0.00 | 0.01 | 0.01 | 81 | 1012.7 |
| 20260508082503 | 44 | 67 | 3.0 | 7.0 | 0.00 | 0.01 | 0.01 | 80 | 1012.6 |
| 20260508082006 | 45 | 46 | 3.0 | 8.0 | 0.00 | 0.01 | 0.01 | 80 | 1012.8 |
| 20260508081525 | 45 | 49 | 3.0 | 8.0 | 0.00 | 0.01 | 0.01 | 79 | 1012.7 |
| 20260508081009 | 45 | 120 | 3.0 | 8.0 | 0.00 | 0.01 | 0.01 | 79 | 1012.8 |
| 20260508080507 | 45 | 76 | 4.0 | 7.0 | 0.00 | 0.01 | 0.01 | 80 | 1012.8 |
| 20260508080013 | 45 | 63 | 2.0 | 6.0 | 0.00 | 0.01 | 0.01 | 81 | 1012.8 |
| 20260508075503 | 45 | 74 | 2.0 | 6.0 | 0.00 | 0.01 | 0.01 | 80 | 1012.8 |
| 20260508075002 | 45 | 64 | 4.0 | 6.0 | 0.00 | 0.01 | 0.01 | 81 | 1012.9 |
| 20260508074525 | 46 | 60 | 3.0 | 7.0 | 0.00 | 0.01 | 0.01 | 81 | 1012.9 |
| 20260508074004 | 46 | 86 | 3.0 | 8.0 | 0.00 | 0.01 | 0.01 | 81 | 1013.0 |
| 20260508073506 | 46 | 75 | 3.0 | 8.0 | 0.00 | 0.01 | 0.01 | 80 | 1012.9 |
| 20260508073016 | 46 | 50 | 3.0 | 9.0 | 0.00 | 0.01 | 0.01 | 80 | 1012.8 |
| 20260508072506 | 46 | 76 | 6.0 | 9.0 | 0.00 | 0.01 | 0.01 | 79 | 1012.9 |
| 20260508072007 | 46 | 111 | 2.0 | 7.0 | 0.00 | 0.01 | 0.01 | 80 | 1012.9 |
| 20260508071530 | 46 | 84 | 3.0 | 8.0 | 0.00 | 0.01 | 0.01 | 80 | 1013.0 |
| 20260508071008 | 46 | 90 | 4.0 | 13.0 | 0.00 | 0.01 | 0.01 | 79 | 1013.1 |
| 20260508070512 | 46 | 113 | 7.0 | 13.0 | 0.01 | 0.01 | 0.01 | 79 | 1013.1 |
| 20260508070030 | 46 | 83 | 7.0 | 15.0 | 0.01 | 0.01 | 0.01 | 79 | 1013.2 |
| 20260508065503 | 46 | 71 | 7.0 | 24.0 | 0.01 | 0.01 | 0.01 | 79 | 1013.2 |
| 20260508065008 | 45 | 78 | 13.0 | 24.0 | 0.01 | 0.01 | 0.01 | 78 | 1013.1 |
| 20260508064527 | 45 | 71 | 5.0 | 11.0 | 0.01 | 0.01 | 0.01 | 81 | 1013.1 |
| 20260508064011 | 45 | 84 | 6.0 | 11.0 | 0.01 | 0.01 | 0.01 | 82 | 1013.0 |
| 20260508063502 | 45 | 80 | 3.0 | 6.0 | 0.01 | 0.01 | 0.01 | 83 | 1013.2 |
| 20260508063019 | 45 | 53 | 2.0 | 4.0 | 0.01 | 0.01 | 0.01 | 83 | 1013.1 |
| 20260508062508 | 45 | 38 | 2.0 | 4.0 | 0.01 | 0.01 | 0.01 | 84 | 1013.0 |
| 20260508062009 | 44 | 34 | 2.0 | 3.0 | 0.01 | 0.01 | 0.01 | 83 | 1013.0 |
| 20260508061521 | 44 | 45 | 1.0 | 3.0 | 0.01 | 0.01 | 0.01 | 83 | 1013.1 |
| 20260508061009 | 44 | 102 | 0.0 | 2.0 | 0.01 | 0.01 | 0.01 | 84 | 1013.1 |
| 20260508060508 | 45 | 102 | 0.0 | 4.0 | 0.00 | 0.00 | 0.00 | 83 | 1013.2 |
| 20260508060019 | 45 | 102 | 0.0 | 4.0 | 0.00 | 0.00 | 0.00 | 84 | 1013.3 |
| 20260508055505 | 44 | 94 | 2.0 | 3.0 | 0.00 | 0.00 | 0.00 | 83 | 1013.3 |
| 20260508055011 | 44 | 101 | 0.0 | 0.0 | 0.00 | 0.00 | 0.00 | 81 | 1013.2 |
| 20260508054527 | 44 | 101 | 0.0 | 0.0 | 0.00 | 0.00 | 0.00 | 81 | 1013.2 |
| 20260508054007 | 44 | 101 | 0.0 | 0.0 | 0.00 | 0.00 | 0.00 | 80 | 1013.3 |
| 20260508053509 | 45 | 101 | 0.0 | 0.0 | 0.00 | 0.00 | 0.00 | 79 | 1013.3 |
| 20260508053028 | 45 | 101 | 0.0 | 0.0 | 0.00 | 0.00 | 0.00 | 81 | 1013.4 |
| 20260508052511 | 45 | 101 | 0.0 | 0.0 | 0.00 | 0.00 | 0.00 | 81 | 1013.4 |
| 20260508052008 | 45 | 101 | 0.0 | 0.0 | 0.00 | 0.00 | 0.00 | 81 | 1013.4 |
| 20260508051516 | 45 | 101 | 0.0 | 0.0 | 0.00 | 0.00 | 0.00 | 80 | 1013.4 |
| 20260508051005 | 45 | 101 | 0.0 | 0.0 | 0.00 | 0.00 | 0.00 | 81 | 1013.4 |
| 20260508050505 | 46 | 101 | 0.0 | 0.0 | 0.00 | 0.00 | 0.00 | 78 | 1013.2 |
| 20260508050027 | 46 | 101 | 0.0 | 2.0 | 0.00 | 0.00 | 0.00 | 78 | 1013.3 |
| 20260508045512 | 46 | 101 | 0.0 | 3.0 | 0.00 | 0.00 | 0.00 | 77 | 1013.3 |
| 20260508045008 | 46 | 101 | 0.0 | 4.0 | 0.00 | 0.00 | 0.00 | 77 | 1013.3 |
| 20260508044523 | 46 | 113 | 2.0 | 6.0 | 0.00 | 0.00 | 0.00 | 76 | 1013.3 |
| 20260508044008 | 47 | 105 | 2.0 | 8.0 | 0.00 | 0.00 | 0.00 | 74 | 1013.3 |
| 20260508043514 | 47 | 29 | 1.0 | 8.0 | 0.00 | 0.00 | 0.00 | 73 | 1013.4 |
| 20260508043027 | 47 | 76 | 3.0 | 6.0 | 0.00 | 0.00 | 0.00 | 72 | 1013.9 |
| 20260508042507 | 47 | 113 | 1.0 | 3.0 | 0.00 | 0.00 | 0.00 | 71 | 1013.7 |
| 20260508042012 | 47 | 133 | 1.0 | 4.0 | 0.00 | 0.00 | 0.00 | 72 | 1013.6 |
| 20260508041530 | 47 | 131 | 0.0 | 4.0 | 0.00 | 0.00 | 0.00 | 71 | 1013.5 |
| 20260508041008 | 47 | 113 | 1.0 | 4.0 | 0.00 | 0.00 | 0.00 | 71 | 1013.4 |
| 20260508040512 | 47 | 122 | 1.0 | 7.0 | 0.00 | 0.00 | 0.00 | 71 | 1013.5 |
| 20260508040013 | 47 | 127 | 2.0 | 7.0 | 0.00 | 0.00 | 0.00 | 68 | 1013.6 |
| 20260508035505 | 47 | 103 | 2.0 | 6.0 | 0.00 | 0.00 | 0.00 | 69 | 1013.5 |
| 20260508035004 | 47 | 124 | 1.0 | 8.0 | 0.00 | 0.00 | 0.00 | 69 | 1013.5 |
| 20260508034509 | 47 | 114 | 2.0 | 8.0 | 0.00 | 0.00 | 0.00 | 69 | 1013.5 |
| 20260508034003 | 47 | 101 | 1.0 | 5.0 | 0.00 | 0.00 | 0.00 | 69 | 1013.5 |
| 20260508033510 | 47 | 65 | 1.0 | 9.0 | 0.00 | 0.00 | 0.00 | 67 | 1013.4 |
| 20260508033010 | 47 | 130 | 2.0 | 9.0 | 0.00 | 0.00 | 0.00 | 68 | 1013.5 |
| 20260508032504 | 46 | 111 | 4.0 | 9.0 | 0.00 | 0.00 | 0.00 | 67 | 1013.5 |
| 20260508032010 | 46 | 137 | 2.0 | 10.0 | 0.00 | 0.00 | 0.00 | 69 | 1013.6 |
| 20260508031512 | 46 | 68 | 4.0 | 10.0 | 0.00 | 0.00 | 0.00 | 69 | 1013.5 |
| 20260508031003 | 45 | 101 | 4.0 | 10.0 | 0.00 | 0.00 | 0.00 | 70 | 1013.6 |
| 20260508030505 | 45 | 74 | 2.0 | 4.0 | 0.00 | 0.00 | 0.00 | 71 | 1013.6 |
| 20260508030020 | 44 | 40 | 1.0 | 3.0 | 0.00 | 0.00 | 0.00 | 71 | 1013.5 |
| 20260508025508 | 44 | 40 | 1.0 | 3.0 | 0.00 | 0.00 | 0.00 | 70 | 1013.4 |
| 20260508025005 | 44 | 51 | 1.0 | 3.0 | 0.00 | 0.00 | 0.00 | 70 | 1013.4 |
| 20260508024514 | 44 | 70 | 0.0 | 3.0 | 0.00 | 0.00 | 0.00 | 69 | 1013.4 |
| 20260508024007 | 44 | 137 | 0.0 | 2.0 | 0.00 | 0.00 | 0.00 | 70 | 1013.4 |
| 20260508023508 | 44 | 137 | 0.0 | 0.0 | 0.00 | 0.00 | 0.00 | 69 | 1013.4 |
| 20260508023010 | 44 | 137 | 0.0 | 0.0 | 0.00 | 0.00 | 0.00 | 70 | 1013.5 |
| 20260508022506 | 44 | 137 | 0.0 | 0.0 | 0.00 | 0.00 | 0.00 | 69 | 1013.4 |
| 20260508022004 | 44 | 137 | 0.0 | 0.0 | 0.00 | 0.00 | 0.00 | 70 | 1013.5 |
| 20260508021515 | 44 | 137 | 0.0 | 0.0 | 0.00 | 0.00 | 0.00 | 70 | 1013.4 |
| 20260508021002 | 44 | 137 | 0.0 | 0.0 | 0.00 | 0.00 | 0.00 | 69 | 1013.3 |
| 20260508020505 | 44 | 137 | 0.0 | 0.0 | 0.00 | 0.00 | 0.00 | 70 | 1013.3 |
| 20260508020012 | 44 | 137 | 0.0 | 0.0 | 0.00 | 0.00 | 0.00 | 70 | 1013.3 |
| 20260508015502 | 44 | 137 | 0.0 | 0.0 | 0.00 | 0.00 | 0.00 | 69 | 1013.3 |
| 20260508015007 | 45 | 137 | 0.0 | 0.0 | 0.00 | 0.00 | 0.00 | 69 | 1013.3 |
| 20260508014517 | 45 | 137 | 0.0 | 1.0 | 0.00 | 0.00 | 0.00 | 69 | 1013.3 |
| 20260508014008 | 45 | 137 | 0.0 | 1.0 | 0.00 | 0.00 | 0.00 | 68 | 1013.2 |
| 20260508013502 | 45 | 137 | 0.0 | 1.0 | 0.00 | 0.00 | 0.00 | 67 | 1013.2 |
| 20260508013033 | 45 | 137 | 0.0 | 1.0 | 0.00 | 0.00 | 0.00 | 66 | 1013.2 |
| 20260508012508 | 46 | 137 | 0.0 | 0.0 | 0.00 | 0.00 | 0.00 | 65 | 1013.2 |
| 20260508012005 | 46 | 137 | 0.0 | 0.0 | 0.00 | 0.00 | 0.00 | 65 | 1013.2 |
| 20260508011516 | 46 | 137 | 0.0 | 0.0 | 0.00 | 0.00 | 0.00 | 64 | 1013.1 |
| 20260508011005 | 46 | 137 | 0.0 | 0.0 | 0.00 | 0.00 | 0.00 | 63 | 1013.0 |
| 20260508010509 | 47 | 137 | 0.0 | 0.0 | 0.00 | 0.00 | 0.00 | 63 | 1013.0 |
| 20260508010015 | 47 | 137 | 0.0 | 0.0 | 0.00 | 0.00 | 0.00 | 62 | 1013.0 |
| 20260508005505 | 48 | 137 | 0.0 | 1.0 | 0.00 | 0.00 | 0.00 | 62 | 1013.1 |
| 20260508005006 | 48 | 137 | 0.0 | 1.0 | 0.00 | 0.00 | 0.00 | 61 | 1013.0 |
| 20260508004527 | 48 | 137 | 0.0 | 1.0 | 0.00 | 0.00 | 0.00 | 61 | 1013.0 |
| 20260508004008 | 49 | 137 | 0.0 | 1.0 | 0.00 | 0.00 | 0.00 | 60 | 1012.9 |
| 20260508003511 | 49 | 137 | 0.0 | 2.0 | 0.00 | 0.00 | 0.00 | 59 | 1012.9 |
| 20260508003022 | 50 | 137 | 0.0 | 3.0 | 0.00 | 0.00 | 0.00 | 59 | 1012.9 |
| 20260508002504 | 50 | 137 | 0.0 | 3.0 | 0.00 | 0.00 | 0.00 | 57 | 1012.9 |
| 20260508002007 | 50 | 163 | 0.0 | 4.0 | 0.00 | 0.00 | 0.00 | 57 | 1012.8 |
| 20260508001521 | 51 | 163 | 0.0 | 4.0 | 0.00 | 0.00 | 0.00 | 57 | 1012.8 |
| 20260508001009 | 51 | 148 | 0.0 | 3.0 | 0.00 | 0.00 | 0.00 | 55 | 1012.7 |
| 20260508000504 | 51 | 148 | 1.0 | 5.0 | 0.00 | 0.00 | 0.00 | 57 | 1012.7 |
| 20260508000023 | 52 | 159 | 0.0 | 5.0 | 0.00 | 0.00 | 0.00 | 54 | 1012.6 |
| 20260507235507 | 52 | 131 | 0.0 | 4.0 | 0.00 | 0.00 | 0.00 | 57 | 1012.5 |
| 20260507235008 | 52 | 151 | 1.0 | 9.0 | 0.00 | 0.00 | 0.00 | 54 | 1012.4 |
| 20260507234512 | 53 | 141 | 1.0 | 9.0 | 0.00 | 0.00 | 0.00 | 54 | 1012.4 |
| 20260507234005 | 54 | 138 | 0.0 | 6.0 | 0.00 | 0.00 | 0.00 | 53 | 1012.3 |
| 20260507233504 | 54 | 140 | 0.0 | 9.0 | 0.00 | 0.00 | 0.00 | 52 | 1012.2 |
| 20260507233027 | 55 | 134 | 1.0 | 9.0 | 0.00 | 0.00 | 0.00 | 49 | 1012.2 |
| 20260507232510 | 55 | 157 | 2.0 | 9.0 | 0.00 | 0.00 | 0.00 | 51 | 1012.2 |
| 20260507232012 | 55 | 117 | 2.0 | 9.0 | 0.00 | 0.00 | 0.00 | 50 | 1012.2 |
| 20260507231521 | 55 | 84 | 1.0 | 9.0 | 0.00 | 0.00 | 0.00 | 50 | 1012.2 |
| 20260507231012 | 55 | 122 | 4.0 | 9.0 | 0.00 | 0.00 | 0.00 | 48 | 1012.3 |
| 20260507230510 | 56 | 126 | 1.0 | 8.0 | 0.00 | 0.00 | 0.00 | 49 | 1012.3 |
| 20260507230024 | 56 | 101 | 3.0 | 15.0 | 0.00 | 0.00 | 0.00 | 48 | 1012.3 |
| 20260507225507 | 56 | 124 | 3.0 | 16.0 | 0.00 | 0.00 | 0.00 | 46 | 1012.2 |
| 20260507225007 | 56 | 95 | 9.0 | 16.0 | 0.00 | 0.00 | 0.00 | 46 | 1012.2 |
| 20260507224531 | 56 | 95 | 9.0 | 15.0 | 0.00 | 0.00 | 0.00 | 43 | 1012.2 |
| 20260507224007 | 57 | 138 | 7.0 | 17.0 | 0.00 | 0.00 | 0.00 | 45 | 1012.3 |
| 20260507223504 | 57 | 147 | 6.0 | 17.0 | 0.00 | 0.00 | 0.00 | 45 | 1012.4 |
| 20260507223023 | 57 | 151 | 6.0 | 25.0 | 0.00 | 0.00 | 0.00 | 47 | 1012.3 |
| 20260507222505 | 56 | 100 | 7.0 | 25.0 | 0.00 | 0.00 | 0.00 | 46 | 1012.4 |
| 20260507222006 | 57 | 92 | 5.0 | 17.0 | 0.00 | 0.00 | 0.00 | 47 | 1012.3 |
| 20260507221520 | 57 | 123 | 6.0 | 20.0 | 0.00 | 0.00 | 0.00 | 47 | 1012.3 |
| 20260507221010 | 57 | 131 | 10.0 | 20.0 | 0.00 | 0.00 | 0.00 | 45 | 1012.3 |
| 20260507220510 | 57 | 110 | 9.0 | 20.0 | 0.00 | 0.00 | 0.00 | 48 | 1012.3 |
| 20260507220022 | 57 | 169 | 8.0 | 18.0 | 0.00 | 0.00 | 0.00 | 48 | 1012.2 |
| 20260507215506 | 56 | 158 | 6.0 | 14.0 | 0.00 | 0.00 | 0.00 | 49 | 1012.3 |
| 20260507215009 | 57 | 154 | 7.0 | 18.0 | 0.00 | 0.00 | 0.00 | 49 | 1012.2 |
| 20260507214509 | 57 | 107 | 8.0 | 18.0 | 0.00 | 0.00 | 0.00 | 48 | 1012.1 |
| 20260507214002 | 57 | 98 | 9.0 | 16.0 | 0.00 | 0.00 | 0.00 | 48 | 1012.0 |
| 20260507213503 | 57 | 131 | 4.0 | 13.0 | 0.00 | 0.00 | 0.00 | 52 | 1012.1 |
| 20260507213010 | 56 | 136 | 3.0 | 15.0 | 0.00 | 0.00 | 0.00 | 50 | 1012.0 |
| 20260507212501 | 56 | 74 | 9.0 | 16.0 | 0.00 | 0.00 | 0.00 | 47 | 1011.9 |
| 20260507212003 | 57 | 136 | 7.0 | 16.0 | 0.00 | 0.00 | 0.00 | 47 | 1011.9 |
| 20260507211504 | 58 | 134 | 7.0 | 15.0 | 0.00 | 0.00 | 0.00 | 46 | 1011.8 |
| 20260507211004 | 57 | 113 | 6.0 | 14.0 | 0.00 | 0.00 | 0.00 | 50 | 1011.8 |
| 20260507210502 | 57 | 119 | 6.0 | 17.0 | 0.00 | 0.00 | 0.00 | 53 | 1011.7 |
| 20260507210009 | 57 | 97 | 5.0 | 17.0 | 0.00 | 0.00 | 0.00 | 54 | 1011.6 |
| 20260507205503 | 56 | 115 | 6.0 | 17.0 | 0.00 | 0.00 | 0.00 | 53 | 1011.6 |
| 20260507205004 | 56 | 146 | 7.0 | 19.0 | 0.00 | 0.00 | 0.00 | 53 | 1011.7 |
| 20260507204504 | 56 | 161 | 9.0 | 19.0 | 0.00 | 0.00 | 0.00 | 51 | 1011.6 |
| 20260507204003 | 57 | 99 | 8.0 | 18.0 | 0.00 | 0.00 | 0.00 | 50 | 1011.6 |
| 20260507203505 | 59 | 169 | 6.0 | 17.0 | 0.00 | 0.00 | 0.00 | 49 | 1011.4 |
| 20260507203003 | 59 | 146 | 8.0 | 19.0 | 0.00 | 0.00 | 0.00 | 49 | 1011.3 |
| 20260507202503 | 59 | 130 | 8.0 | 19.0 | 0.00 | 0.00 | 0.00 | 48 | 1011.3 |
| 20260507202005 | 59 | 94 | 9.0 | 18.0 | 0.00 | 0.00 | 0.00 | 52 | 1011.5 |
| 20260507201512 | 58 | 129 | 5.0 | 16.0 | 0.00 | 0.00 | 0.00 | 52 | 1011.5 |
| 20260507201003 | 58 | 105 | 6.0 | 16.0 | 0.00 | 0.00 | 0.00 | 49 | 1011.5 |
| 20260507200504 | 59 | 143 | 6.0 | 17.0 | 0.00 | 0.00 | 0.00 | 50 | 1011.6 |
| 20260507200006 | 58 | 107 | 8.0 | 17.0 | 0.00 | 0.00 | 0.00 | 49 | 1011.5 |
| 20260507195502 | 57 | 112 | 3.0 | 14.0 | 0.00 | 0.00 | 0.00 | 52 | 1011.5 |
| 20260507195003 | 58 | 144 | 3.0 | 14.0 | 0.00 | 0.00 | 0.00 | 52 | 1011.6 |
| 20260507194504 | 59 | 146 | 5.0 | 15.0 | 0.00 | 0.00 | 0.00 | 48 | 1011.7 |
| 20260507194002 | 59 | 73 | 7.0 | 15.0 | 0.00 | 0.00 | 0.00 | 51 | 1011.8 |
| 20260507193502 | 58 | 63 | 5.0 | 17.0 | 0.00 | 0.00 | 0.00 | 48 | 1011.8 |
| 20260507193004 | 58 | 118 | 5.0 | 17.0 | 0.00 | 0.00 | 0.00 | 52 | 1011.9 |
| 20260507192504 | 58 | 128 | 7.0 | 17.0 | 0.00 | 0.00 | 0.00 | 51 | 1011.9 |